Weather in Chervyanka

Russia / Irkutsk Oblast     57°39′26″N   99°32′43″E
temp.,
°C
wind,
m/s
gust,
m/s
humid.,
%
clouds,
%
prec.,
mm/h
press.,
hPa
HPBL,
m
25 february, thu
thu2523:00−28e129718 0.0 103219
02:00−29e22979 0.0 103119
05:00−30e239729 0.0 102855
08:00−27e399462 0.0 1026256
11:00−23e499192 0.0 1024363
14:00−19e5109495 0.1 1019485
17:00−16e2496100 0.4 1017334
20:00−16e2497100 1.3 1017137
26 february, fri
fri2623:00−17wsw2497100 0.3 1018134
02:00−20w2497100 0.3 102160
05:00−23sw229830 0.0 102327
08:00−24wsw239649 0.0 102560
11:00−19sw248356 0.0 1026438
14:00−16sw477443 0.0 10251258
17:00−15sw4875100 0.1 10242098
20:00−18s259799 0.2 1025152
27 february, sat
sat2723:00−19wnw61093100 1.0 10281033
02:00−22wsw31093100 1.1 1030550
05:00−23wsw3994100 0.0 1031562
08:00−24sw31095100 0.1 1033491
11:00−23wsw4785100 0.0 10341090
14:00−22wsw4681100 0.1 10341322
17:00−23wsw4784100 0.1 10351185
20:00−25sw2895100 0.1 1036301
28 february, sun
sun2823:00−25sw2796100 0.0 1036241
02:00−25sw2497100 0.0 1035105
05:00−25sw2598100 0.1 1036158
08:00−25sw2698100 0.1 1036200
11:00−22wsw3789100 0.0 1036845
14:00−20wsw3687100 0.1 1035988
17:00−19wsw3688100 0.1 10341003
20:00−21ssw1297100 0.1 103321
1 march, mon
mon123:00−21ssw1298100 0.0 103135
02:00−21s1199100 0.1 102920
05:00−21se1199100 0.1 102720
08:00−21ese1299100 0.2 102529
11:00−18ese2394100 0.1 1022234
14:00−14e2389100 0.3 1019487
17:00−13ene2392100 0.2 1017410
20:00−16ne2697100 0.4 1016164